Time,TemperatureF,DewpointF,PressureIn,WindDirection,WindDirectionDegrees,WindSpeedMPH,WindSpeedGustMPH,Humidity,HourlyPrecipIn,Conditions,Clouds,dailyrainin,SoftwareType,DateUTC
2013-01-01 00:03:00,33.4,31.6,30.44,SE,127,0.0,0.0,93,0.00,,,0.00,Wunderground v.1.15,2013-01-01 08:03:00,
2013-01-01 00:09:00,33.4,31.9,30.44,SE,127,0.0,0.0,94,0.00,,,0.00,Wunderground v.1.15,2013-01-01 08:09:00,
2013-01-01 00:14:00,33.4,31.9,30.44,SE,127,0.0,0.0,94,0.00,,,0.00,Wunderground v.1.15,2013-01-01 08:14:00,
2013-01-01 00:19:00,33.4,31.9,30.44,ESE,123,0.0,2.0,94,0.00,,,0.00,Wunderground v.1.15,2013-01-01 08:19:00,
2013-01-01 00:25:00,33.5,32.0,30.45,ESE,109,1.0,3.0,94,0.00,,,0.00,Wunderground v.1.15,2013-01-01 08:25:00,
2013-01-01 00:30:00,33.5,32.0,30.44,ESE,109,2.0,2.0,94,0.00,,,0.00,Wunderground v.1.15,2013-01-01 08:30:00,
2013-01-01 00:35:00,33.5,32.0,30.44,ESE,109,2.0,3.0,94,0.00,,,0.00,Wunderground v.1.15,2013-01-01 08:35:00,
2013-01-01 00:41:00,33.4,31.9,30.45,SE,128,1.0,2.0,94,0.00,,,0.00,Wunderground v.1.15,2013-01-01 08:41:00,
2013-01-01 00:46:00,33.3,31.8,30.45,ESE,119,2.0,4.0,94,0.00,,,0.00,Wunderground v.1.15,2013-01-01 08:46:00,
2013-01-01 00:51:00,33.3,31.8,30.45,ESE,119,1.0,1.0,94,0.00,,,0.00,Wunderground v.1.15,2013-01-01 08:51:00,
2013-01-01 00:57:00,33.2,31.7,30.45,ENE,61,1.0,2.0,94,0.00,,,0.00,Wunderground v.1.15,2013-01-01 08:57:00,
2013-01-01 01:03:00,33.1,31.6,30.45,East,89,2.0,7.0,94,0.00,,,0.00,Wunderground v.1.15,2013-01-01 09:03:00,
2013-01-01 01:08:00,33.0,31.5,30.44,East,94,2.0,7.0,94,0.00,,,0.00,Wunderground v.1.15,2013-01-01 09:08:00,
2013-01-01 01:13:00,32.9,31.4,30.45,ESE,113,2.0,7.0,94,0.00,,,0.00,Wunderground v.1.15,2013-01-01 09:13:00,
2013-01-01 01:18:00,32.9,31.4,30.45,East,80,2.0,7.0,94,0.00,,,0.00,Wunderground v.1.15,2013-01-01 09:18:00,
2013-01-01 01:24:00,32.9,31.4,30.44,East,87,1.0,7.0,94,0.00,,,0.00,Wunderground v.1.15,2013-01-01 09:24:00,
2013-01-01 01:29:00,32.9,31.4,30.45,East,87,0.0,7.0,94,0.00,,,0.00,Wunderground v.1.15,2013-01-01 09:29:00,
2013-01-01 01:34:00,32.9,31.4,30.45,East,87,0.0,7.0,94,0.00,,,0.00,Wunderground v.1.15,2013-01-01 09:34:00,
2013-01-01 01:40:00,32.9,31.4,30.45,East,87,0.0,7.0,94,0.00,,,0.00,Wunderground v.1.15,2013-01-01 09:40:00,
2013-01-01 01:45:00,33.0,31.5,30.45,East,87,0.0,7.0,94,0.00,,,0.00,Wunderground v.1.15,2013-01-01 09:45:00,
2013-01-01 01:50:00,32.9,31.4,30.45,East,87,0.0,7.0,94,0.00,,,0.00,Wunderground v.1.15,2013-01-01 09:50:00,
2013-01-01 01:56:00,33.0,31.5,30.45,East,88,1.0,7.0,94,0.00,,,0.00,Wunderground v.1.15,2013-01-01 09:56:00,
2013-01-01 02:01:00,33.0,31.5,30.46,East,87,1.0,7.0,94,0.00,,,0.00,Wunderground v.1.15,2013-01-01 10:01:00,
2013-01-01 02:07:00,33.0,31.5,30.46,East,87,0.0,7.0,94,0.00,,,0.00,Wunderground v.1.15,2013-01-01 10:07:00,
2013-01-01 02:12:00,33.0,31.5,30.47,East,87,0.0,7.0,94,0.00,,,0.00,Wunderground v.1.15,2013-01-01 10:12:00,
2013-01-01 02:18:00,33.0,31.5,30.47,East,87,0.0,7.0,94,0.00,,,0.00,Wunderground v.1.15,2013-01-01 10:18:00,
2013-01-01 02:23:00,33.0,31.7,30.47,East,87,0.0,7.0,95,0.00,,,0.01,Wunderground v.1.15,2013-01-01 10:23:00,
2013-01-01 02:28:00,33.1,31.8,30.48,East,88,0.0,7.0,95,0.00,,,0.01,Wunderground v.1.15,2013-01-01 10:28:00,
2013-01-01 02:34:00,33.1,31.8,30.48,East,87,0.0,7.0,95,0.00,,,0.01,Wunderground v.1.15,2013-01-01 10:34:00,
2013-01-01 02:39:00,33.1,31.8,30.48,East,87,0.0,7.0,95,0.00,,,0.01,Wunderground v.1.15,2013-01-01 10:39:00,
2013-01-01 02:45:00,33.1,31.8,30.47,East,88,0.0,7.0,95,0.00,,,0.01,Wunderground v.1.15,2013-01-01 10:45:00,
2013-01-01 02:50:00,33.0,31.7,30.47,ENE,64,0.0,7.0,95,0.00,,,0.01,Wunderground v.1.15,2013-01-01 10:50:00,
2013-01-01 02:56:00,32.9,31.4,30.47,ENE,64,2.0,7.0,94,0.00,,,0.01,Wunderground v.1.15,2013-01-01 10:56:00,
2013-01-01 03:01:00,32.8,31.3,30.47,ENE,64,2.0,7.0,94,0.00,,,0.01,Wunderground v.1.15,2013-01-01 11:01:00,
2013-01-01 03:06:00,32.7,31.2,30.47,ENE,68,2.0,7.0,94,0.00,,,0.01,Wunderground v.1.15,2013-01-01 11:06:00,
2013-01-01 03:12:00,32.7,31.2,30.47,ENE,69,1.0,7.0,94,0.00,,,0.01,Wunderground v.1.15,2013-01-01 11:12:00,
2013-01-01 03:18:00,32.7,31.2,30.47,ENE,69,0.0,7.0,94,0.00,,,0.01,Wunderground v.1.15,2013-01-01 11:18:00,
2013-01-01 03:23:00,32.6,31.1,30.46,ENE,69,0.0,7.0,94,0.00,,,0.01,Wunderground v.1.15,2013-01-01 11:23:00,
2013-01-01 03:29:00,32.6,31.1,30.46,NE,46,2.0,7.0,94,0.00,,,0.01,Wunderground v.1.15,2013-01-01 11:29:00,
2013-01-01 03:34:00,32.6,31.1,30.46,NE,49,2.0,7.0,94,0.00,,,0.01,Wunderground v.1.15,2013-01-01 11:34:00,
2013-01-01 03:39:00,32.5,31.0,30.46,ENE,62,2.0,7.0,94,0.00,,,0.01,Wunderground v.1.15,2013-01-01 11:39:00,
2013-01-01 03:44:00,32.5,31.0,30.46,NE,46,2.0,7.0,94,0.00,,,0.01,Wunderground v.1.15,2013-01-01 11:44:00,
2013-01-01 03:50:00,32.5,31.0,30.45,ENE,65,2.0,2.0,94,0.00,,,0.01,Wunderground v.1.15,2013-01-01 11:50:00,
2013-01-01 03:55:00,32.4,30.9,30.45,NE,46,2.0,7.0,94,0.00,,,0.01,Wunderground v.1.15,2013-01-01 11:55:00,
2013-01-01 04:01:00,32.4,30.9,30.45,NE,39,3.0,7.0,94,0.00,,,0.01,Wunderground v.1.15,2013-01-01 12:01:00,
2013-01-01 04:06:00,32.4,30.9,30.45,NE,41,3.0,7.0,94,0.00,,,0.01,Wunderground v.1.15,2013-01-01 12:06:00,
2013-01-01 04:11:00,32.3,30.8,30.44,NE,55,3.0,7.0,94,0.00,,,0.01,Wunderground v.1.15,2013-01-01 12:11:00,
2013-01-01 04:17:00,32.3,30.8,30.44,NE,55,2.0,7.0,94,0.00,,,0.01,Wunderground v.1.15,2013-01-01 12:17:00,
2013-01-01 04:22:00,32.3,30.8,30.44,NE,55,0.0,7.0,94,0.00,,,0.01,Wunderground v.1.15,2013-01-01 12:22:00,
2013-01-01 04:28:00,32.3,30.8,30.44,NE,55,1.0,7.0,94,0.00,,,0.01,Wunderground v.1.15,2013-01-01 12:28:00,
2013-01-01 04:33:00,32.3,30.8,30.45,NE,55,1.0,7.0,94,0.00,,,0.02,Wunderground v.1.15,2013-01-01 12:33:00,
2013-01-01 04:39:00,32.3,30.8,30.45,NE,55,0.0,7.0,94,0.00,,,0.02,Wunderground v.1.15,2013-01-01 12:39:00,
2013-01-01 04:44:00,32.3,30.8,30.45,NE,55,0.0,7.0,94,0.00,,,0.02,Wunderground v.1.15,2013-01-01 12:44:00,
2013-01-01 04:50:00,32.2,30.7,30.46,NE,50,0.0,7.0,94,0.00,,,0.02,Wunderground v.1.15,2013-01-01 12:50:00,
2013-01-01 04:55:00,32.2,30.7,30.46,NNE,12,1.0,7.0,94,0.00,,,0.02,Wunderground v.1.15,2013-01-01 12:55:00,
2013-01-01 05:00:00,32.2,30.7,30.46,NE,38,2.0,2.0,94,0.00,,,0.02,Wunderground v.1.15,2013-01-01 13:00:00,
2013-01-01 05:06:00,32.1,30.6,30.46,NE,44,2.0,7.0,94,0.00,,,0.02,Wunderground v.1.15,2013-01-01 13:06:00,
2013-01-01 05:11:00,32.1,30.6,30.46,NE,53,2.0,7.0,94,0.00,,,0.02,Wunderground v.1.15,2013-01-01 13:11:00,
2013-01-01 05:16:00,32.1,30.6,30.46,NE,54,2.0,7.0,94,0.00,,,0.02,Wunderground v.1.15,2013-01-01 13:16:00,
2013-01-01 05:22:00,32.1,30.6,30.46,NE,55,1.0,7.0,94,0.00,,,0.02,Wunderground v.1.15,2013-01-01 13:22:00,
2013-01-01 05:27:00,32.1,30.6,30.46,ESE,111,1.0,7.0,94,0.00,,,0.02,Wunderground v.1.15,2013-01-01 13:27:00,
2013-01-01 05:33:00,32.1,30.6,30.46,ESE,103,2.0,7.0,94,0.00,,,0.02,Wunderground v.1.15,2013-01-01 13:33:00,
2013-01-01 05:38:00,32.1,30.6,30.46,East,88,2.0,7.0,94,0.00,,,0.02,Wunderground v.1.15,2013-01-01 13:38:00,
2013-01-01 05:43:00,32.2,30.7,30.46,East,88,1.0,7.0,94,0.00,,,0.02,Wunderground v.1.15,2013-01-01 13:43:00,
2013-01-01 05:49:00,32.2,30.7,30.47,East,88,0.0,7.0,94,0.00,,,0.02,Wunderground v.1.15,2013-01-01 13:49:00,
2013-01-01 05:54:00,32.2,30.7,30.47,East,89,1.0,7.0,94,0.00,,,0.02,Wunderground v.1.15,2013-01-01 13:54:00,
2013-01-01 06:00:00,32.2,30.7,30.47,East,90,1.0,7.0,94,0.00,,,0.02,Wunderground v.1.15,2013-01-01 14:00:00,
2013-01-01 06:05:00,32.2,30.7,30.47,East,79,2.0,7.0,94,0.00,,,0.02,Wunderground v.1.15,2013-01-01 14:05:00,
2013-01-01 06:11:00,32.1,30.6,30.47,East,79,2.0,2.0,94,0.00,,,0.02,Wunderground v.1.15,2013-01-01 14:11:00,
2013-01-01 06:16:00,32.1,30.6,30.47,East,79,1.0,2.0,94,0.00,,,0.02,Wunderground v.1.15,2013-01-01 14:16:00,
2013-01-01 06:21:00,32.1,30.6,30.47,East,79,1.0,1.0,94,0.00,,,0.02,Wunderground v.1.15,2013-01-01 14:21:00,
2013-01-01 06:27:00,32.2,30.7,30.46,East,79,0.0,1.0,94,0.00,,,0.02,Wunderground v.1.15,2013-01-01 14:27:00,
2013-01-01 06:32:00,32.3,30.8,30.46,East,79,0.0,1.0,94,0.00,,,0.02,Wunderground v.1.15,2013-01-01 14:32:00,
2013-01-01 06:37:00,32.3,30.8,30.46,East,80,0.0,1.0,94,0.00,,,0.02,Wunderground v.1.15,2013-01-01 14:37:00,
2013-01-01 06:43:00,32.3,30.8,30.46,East,81,0.0,1.0,94,0.00,,,0.02,Wunderground v.1.15,2013-01-01 14:43:00,
2013-01-01 06:48:00,32.3,30.8,30.46,East,81,0.0,1.0,94,0.00,,,0.02,Wunderground v.1.15,2013-01-01 14:48:00,
2013-01-01 06:54:00,32.2,30.7,30.46,East,81,0.0,0.0,94,0.00,,,0.02,Wunderground v.1.15,2013-01-01 14:54:00,
2013-01-01 06:59:00,32.3,30.8,30.46,East,81,0.0,0.0,94,0.00,,,0.02,Wunderground v.1.15,2013-01-01 14:59:00,
2013-01-01 07:04:00,32.3,30.8,30.46,East,81,0.0,4.0,94,0.00,,,0.02,Wunderground v.1.15,2013-01-01 15:04:00,
2013-01-01 07:09:00,32.4,30.9,30.46,East,81,0.0,4.0,94,0.00,,,0.02,Wunderground v.1.15,2013-01-01 15:09:00,
2013-01-01 07:15:00,32.3,30.8,30.46,East,82,0.0,4.0,94,0.00,,,0.02,Wunderground v.1.15,2013-01-01 15:15:00,
2013-01-01 07:20:00,32.3,30.8,30.46,East,82,0.0,4.0,94,0.00,,,0.02,Wunderground v.1.15,2013-01-01 15:20:00,
2013-01-01 07:25:00,32.3,30.8,30.46,East,82,0.0,4.0,94,0.00,,,0.02,Wunderground v.1.15,2013-01-01 15:25:00,
2013-01-01 07:31:00,32.3,30.8,30.46,East,82,0.0,4.0,94,0.00,,,0.02,Wunderground v.1.15,2013-01-01 15:31:00,
2013-01-01 07:36:00,32.2,30.7,30.46,East,82,0.0,4.0,94,0.00,,,0.02,Wunderground v.1.15,2013-01-01 15:36:00,
2013-01-01 07:41:00,32.1,30.6,30.46,East,82,0.0,4.0,94,0.00,,,0.02,Wunderground v.1.15,2013-01-01 15:41:00,
2013-01-01 07:47:00,32.0,30.5,30.46,East,82,0.0,4.0,94,0.00,,,0.02,Wunderground v.1.15,2013-01-01 15:47:00,
2013-01-01 07:52:00,32.0,30.5,30.46,East,82,0.0,4.0,94,0.00,,,0.02,Wunderground v.1.15,2013-01-01 15:52:00,
2013-01-01 07:57:00,31.9,30.4,30.47,East,82,0.0,4.0,94,0.00,,,0.02,Wunderground v.1.15,2013-01-01 15:57:00,
2013-01-01 08:03:00,31.8,30.3,30.47,ENE,59,1.0,4.0,94,0.00,,,0.02,Wunderground v.1.15,2013-01-01 16:03:00,
2013-01-01 08:08:00,31.7,30.2,30.47,NE,46,2.0,4.0,94,0.00,,,0.02,Wunderground v.1.15,2013-01-01 16:08:00,
2013-01-01 08:14:00,31.6,30.1,30.47,NE,48,1.0,4.0,94,0.00,,,0.02,Wunderground v.1.15,2013-01-01 16:14:00,
2013-01-01 08:19:00,31.6,30.1,30.47,NE,48,1.0,4.0,94,0.00,,,0.02,Wunderground v.1.15,2013-01-01 16:19:00,
2013-01-01 08:24:00,31.6,30.1,30.47,NE,48,1.0,4.0,94,0.00,,,0.02,Wunderground v.1.15,2013-01-01 16:24:00,
2013-01-01 08:29:00,31.6,30.1,30.47,NE,48,1.0,4.0,94,0.00,,,0.02,Wunderground v.1.15,2013-01-01 16:29:00,
2013-01-01 08:35:00,31.7,30.2,30.47,ENE,65,1.0,4.0,94,0.00,,,0.02,Wunderground v.1.15,2013-01-01 16:35:00,
2013-01-01 08:40:00,31.7,30.2,30.47,ENE,67,1.0,4.0,94,0.00,,,0.02,Wunderground v.1.15,2013-01-01 16:40:00,
2013-01-01 08:45:00,31.7,30.2,30.47,ENE,67,1.0,4.0,94,0.00,,,0.02,Wunderground v.1.15,2013-01-01 16:45:00,
2013-01-01 08:51:00,31.7,30.2,30.48,NE,55,1.0,4.0,94,0.00,,,0.02,Wunderground v.1.15,2013-01-01 16:51:00,
2013-01-01 08:56:00,31.7,30.2,30.48,NE,55,2.0,4.0,94,0.00,,,0.02,Wunderground v.1.15,2013-01-01 16:56:00,
2013-01-01 09:02:00,31.7,30.2,30.48,NE,55,1.0,4.0,94,0.00,,,0.02,Wunderground v.1.15,2013-01-01 17:02:00,
2013-01-01 09:07:00,31.8,30.3,30.48,NE,55,1.0,4.0,94,0.00,,,0.02,Wunderground v.1.15,2013-01-01 17:07:00,
2013-01-01 09:12:00,31.9,30.4,30.48,NE,55,1.0,4.0,94,0.00,,,0.02,Wunderground v.1.15,2013-01-01 17:12:00,
2013-01-01 09:18:00,31.9,30.4,30.48,NE,55,2.0,4.0,94,0.00,,,0.02,Wunderground v.1.15,2013-01-01 17:18:00,
2013-01-01 09:23:00,31.9,30.4,30.48,NE,55,2.0,4.0,94,0.00,,,0.02,Wunderground v.1.15,2013-01-01 17:23:00,
2013-01-01 09:29:00,31.9,30.4,30.48,ENE,58,2.0,4.0,94,0.00,,,0.02,Wunderground v.1.15,2013-01-01 17:29:00,
2013-01-01 09:34:00,32.0,30.2,30.48,NE,55,2.0,4.0,93,0.00,,,0.02,Wunderground v.1.15,2013-01-01 17:34:00,
2013-01-01 09:39:00,32.0,30.2,30.49,NE,56,2.0,4.0,93,0.00,,,0.02,Wunderground v.1.15,2013-01-01 17:39:00,
2013-01-01 09:45:00,32.1,30.3,30.49,NE,49,2.0,4.0,93,0.00,,,0.02,Wunderground v.1.15,2013-01-01 17:45:00,
2013-01-01 09:50:00,32.1,30.3,30.49,NE,49,2.0,4.0,93,0.00,,,0.02,Wunderground v.1.15,2013-01-01 17:50:00,
2013-01-01 09:55:00,32.2,30.4,30.50,NE,49,2.0,4.0,93,0.00,,,0.02,Wunderground v.1.15,2013-01-01 17:55:00,
2013-01-01 10:01:00,32.3,30.5,30.50,NE,42,2.0,4.0,93,0.00,,,0.02,Wunderground v.1.15,2013-01-01 18:01:00,
2013-01-01 10:06:00,32.3,30.5,30.50,NE,41,2.0,4.0,93,0.00,,,0.02,Wunderground v.1.15,2013-01-01 18:06:00,
2013-01-01 10:11:00,32.4,30.6,30.50,NE,39,2.0,4.0,93,0.00,,,0.02,Wunderground v.1.15,2013-01-01 18:11:00,
2013-01-01 10:17:00,32.3,30.5,30.50,NE,38,2.0,4.0,93,0.00,,,0.02,Wunderground v.1.15,2013-01-01 18:17:00,
2013-01-01 10:22:00,32.4,30.6,30.50,ENE,59,2.0,4.0,93,0.00,,,0.03,Wunderground v.1.15,2013-01-01 18:22:00,
2013-01-01 10:27:00,32.3,30.5,30.50,ENE,61,2.0,4.0,93,0.00,,,0.03,Wunderground v.1.15,2013-01-01 18:27:00,
2013-01-01 10:33:00,32.3,30.5,30.49,NE,47,3.0,5.0,93,0.00,,,0.03,Wunderground v.1.15,2013-01-01 18:33:00,
2013-01-01 10:38:00,32.2,30.4,30.50,NE,40,3.0,5.0,93,0.00,,,0.03,Wunderground v.1.15,2013-01-01 18:38:00,
2013-01-01 10:43:00,32.1,30.3,30.49,NNE,32,3.0,4.0,93,0.00,,,0.03,Wunderground v.1.15,2013-01-01 18:43:00,
2013-01-01 10:49:00,31.9,30.1,30.49,NE,36,3.0,5.0,93,0.00,,,0.03,Wunderground v.1.15,2013-01-01 18:49:00,
2013-01-01 10:54:00,31.9,30.1,30.49,ENE,64,3.0,4.0,93,0.00,,,0.03,Wunderground v.1.15,2013-01-01 18:54:00,
2013-01-01 10:59:00,32.0,30.2,30.49,ENE,71,2.0,4.0,93,0.00,,,0.04,Wunderground v.1.15,2013-01-01 18:59:00,
2013-01-01 11:05:00,32.1,30.3,30.49,ENE,70,1.0,4.0,93,0.00,,,0.04,Wunderground v.1.15,2013-01-01 19:05:00,
2013-01-01 11:10:00,32.2,30.4,30.49,NE,51,1.0,4.0,93,0.00,,,0.04,Wunderground v.1.15,2013-01-01 19:10:00,
2013-01-01 11:16:00,32.3,30.5,30.48,NE,51,1.0,4.0,93,0.00,,,0.04,Wunderground v.1.15,2013-01-01 19:16:00,
2013-01-01 11:21:00,32.4,30.6,30.48,NE,55,0.0,4.0,93,0.00,,,0.04,Wunderground v.1.15,2013-01-01 19:21:00,
2013-01-01 11:26:00,32.6,30.8,30.48,ENE,57,1.0,4.0,93,0.00,,,0.04,Wunderground v.1.15,2013-01-01 19:26:00,
2013-01-01 11:32:00,32.9,30.8,30.47,ESE,111,1.0,4.0,92,0.00,,,0.04,Wunderground v.1.15,2013-01-01 19:32:00,
2013-01-01 11:37:00,33.0,30.9,30.47,ENE,58,0.0,4.0,92,0.00,,,0.05,Wunderground v.1.15,2013-01-01 19:37:00,
2013-01-01 11:42:00,32.9,30.8,30.46,East,86,1.0,4.0,92,0.00,,,0.05,Wunderground v.1.15,2013-01-01 19:42:00,
2013-01-01 11:48:00,32.8,30.7,30.46,NE,36,2.0,4.0,92,0.00,,,0.05,Wunderground v.1.15,2013-01-01 19:48:00,
2013-01-01 11:53:00,32.8,30.7,30.46,NE,36,2.0,4.0,92,0.00,,,0.05,Wunderground v.1.15,2013-01-01 19:53:00,
2013-01-01 11:58:00,32.8,30.7,30.46,NNE,24,2.0,4.0,92,0.00,,,0.05,Wunderground v.1.15,2013-01-01 19:58:00,
2013-01-01 12:04:00,32.9,30.8,30.45,NE,35,3.0,4.0,92,0.00,,,0.06,Wunderground v.1.15,2013-01-01 20:04:00,
2013-01-01 12:10:00,33.0,30.9,30.45,ENE,69,3.0,3.0,92,0.00,,,0.06,Wunderground v.1.15,2013-01-01 20:10:00,
2013-01-01 12:15:00,32.9,30.8,30.45,North,355,3.0,4.0,92,0.00,,,0.06,Wunderground v.1.15,2013-01-01 20:15:00,
2013-01-01 12:20:00,33.2,31.1,30.45,North,355,2.0,2.0,92,0.00,,,0.06,Wunderground v.1.15,2013-01-01 20:20:00,
2013-01-01 12:26:00,33.1,30.8,30.45,North,5,2.0,4.0,91,0.00,,,0.06,Wunderground v.1.15,2013-01-01 20:26:00,
2013-01-01 12:31:00,33.2,30.9,30.44,ENE,66,2.0,2.0,91,0.00,,,0.06,Wunderground v.1.15,2013-01-01 20:31:00,
2013-01-01 12:36:00,33.2,30.9,30.44,NE,53,2.0,4.0,91,0.00,,,0.07,Wunderground v.1.15,2013-01-01 20:36:00,
2013-01-01 12:42:00,33.3,31.0,30.44,NE,51,2.0,2.0,91,0.00,,,0.07,Wunderground v.1.15,2013-01-01 20:42:00,
2013-01-01 12:47:00,33.4,31.1,30.44,ENE,74,1.0,3.0,91,0.00,,,0.07,Wunderground v.1.15,2013-01-01 20:47:00,
2013-01-01 12:52:00,33.4,31.1,30.44,NE,51,2.0,4.0,91,0.00,,,0.07,Wunderground v.1.15,2013-01-01 20:52:00,
2013-01-01 12:58:00,33.4,31.1,30.43,NE,46,2.0,4.0,91,0.00,,,0.07,Wunderground v.1.15,2013-01-01 20:58:00,
2013-01-01 13:03:00,33.5,31.2,30.43,ENE,74,2.0,6.0,91,0.00,,,0.08,Wunderground v.1.15,2013-01-01 21:03:00,
2013-01-01 13:08:00,33.7,31.4,30.43,ENE,69,2.0,6.0,91,0.00,,,0.08,Wunderground v.1.15,2013-01-01 21:08:00,
2013-01-01 13:14:00,33.8,31.5,30.43,ENE,67,2.0,6.0,91,0.00,,,0.08,Wunderground v.1.15,2013-01-01 21:14:00,
2013-01-01 13:19:00,34.2,31.8,30.43,NE,44,1.0,6.0,91,0.00,,,0.08,Wunderground v.1.15,2013-01-01 21:19:00,
2013-01-01 13:25:00,34.4,32.0,30.43,ENE,58,1.0,6.0,91,0.00,,,0.08,Wunderground v.1.15,2013-01-01 21:25:00,
2013-01-01 13:30:00,34.4,32.0,30.43,ENE,57,1.0,1.0,91,0.00,,,0.08,Wunderground v.1.15,2013-01-01 21:30:00,
2013-01-01 13:35:00,34.4,31.8,30.43,ENE,57,1.0,6.0,90,0.00,,,0.08,Wunderground v.1.15,2013-01-01 21:35:00,
2013-01-01 13:41:00,34.4,31.8,30.43,North,9,2.0,6.0,90,0.00,,,0.08,Wunderground v.1.15,2013-01-01 21:41:00,
2013-01-01 13:46:00,34.4,31.8,30.43,North,9,2.0,6.0,90,0.00,,,0.09,Wunderground v.1.15,2013-01-01 21:46:00,
2013-01-01 13:51:00,34.5,31.9,30.43,North,9,2.0,3.0,90,0.00,,,0.09,Wunderground v.1.15,2013-01-01 21:51:00,
2013-01-01 13:57:00,34.4,31.8,30.43,NE,43,2.0,6.0,90,0.00,,,0.09,Wunderground v.1.15,2013-01-01 21:57:00,
2013-01-01 14:02:00,34.4,31.8,30.43,NE,40,2.0,6.0,90,0.00,,,0.09,Wunderground v.1.15,2013-01-01 22:02:00,
2013-01-01 14:07:00,34.4,31.8,30.43,NE,40,2.0,6.0,90,0.00,,,0.09,Wunderground v.1.15,2013-01-01 22:07:00,
2013-01-01 14:13:00,34.2,31.6,30.42,North,5,3.0,6.0,90,0.00,,,0.09,Wunderground v.1.15,2013-01-01 22:13:00,
2013-01-01 14:18:00,34.2,31.8,30.42,NE,51,2.0,6.0,91,0.00,,,0.09,Wunderground v.1.15,2013-01-01 22:18:00,
2013-01-01 14:23:00,34.2,31.8,30.42,NE,51,2.0,6.0,91,0.00,,,0.09,Wunderground v.1.15,2013-01-01 22:23:00,
2013-01-01 14:29:00,34.4,32.0,30.42,NE,42,2.0,6.0,91,0.00,,,0.10,Wunderground v.1.15,2013-01-01 22:29:00,
2013-01-01 14:34:00,34.4,32.0,30.41,NE,42,2.0,6.0,91,0.00,,,0.10,Wunderground v.1.15,2013-01-01 22:34:00,
2013-01-01 14:40:00,34.4,32.0,30.41,NE,42,1.0,6.0,91,0.00,,,0.10,Wunderground v.1.15,2013-01-01 22:40:00,
2013-01-01 14:45:00,34.4,32.0,30.41,NE,42,1.0,6.0,91,0.00,,,0.10,Wunderground v.1.15,2013-01-01 22:45:00,
2013-01-01 14:51:00,34.4,32.0,30.41,NE,42,2.0,3.0,91,0.00,,,0.10,Wunderground v.1.15,2013-01-01 22:51:00,
2013-01-01 14:56:00,34.4,32.0,30.41,NE,43,2.0,3.0,91,0.00,,,0.10,Wunderground v.1.15,2013-01-01 22:56:00,
2013-01-01 15:01:00,34.4,32.0,30.41,NE,44,1.0,2.0,91,0.00,,,0.10,Wunderground v.1.15,2013-01-01 23:01:00,
2013-01-01 15:06:00,34.4,32.0,30.41,NE,44,1.0,2.0,91,0.00,,,0.10,Wunderground v.1.15,2013-01-01 23:06:00,
2013-01-01 15:12:00,34.2,31.6,30.41,NE,43,1.0,2.0,90,0.00,,,0.10,Wunderground v.1.15,2013-01-01 23:12:00,
2013-01-01 15:17:00,34.2,31.8,30.41,NE,43,1.0,2.0,91,0.00,,,0.10,Wunderground v.1.15,2013-01-01 23:17:00,
2013-01-01 15:23:00,34.3,31.9,30.41,NE,43,1.0,2.0,91,0.00,,,0.10,Wunderground v.1.15,2013-01-01 23:23:00,
2013-01-01 15:28:00,34.2,31.8,30.41,NE,56,1.0,2.0,91,0.00,,,0.10,Wunderground v.1.15,2013-01-01 23:28:00,
2013-01-01 15:33:00,33.9,31.6,30.41,NNE,26,2.0,6.0,91,0.00,,,0.10,Wunderground v.1.15,2013-01-01 23:33:00,
2013-01-01 15:39:00,33.5,31.2,30.41,North,10,3.0,6.0,91,0.00,,,0.10,Wunderground v.1.15,2013-01-01 23:39:00,
2013-01-01 15:44:00,33.5,31.4,30.42,NNE,13,3.0,6.0,92,0.00,,,0.10,Wunderground v.1.15,2013-01-01 23:44:00,
2013-01-01 15:49:00,33.5,31.4,30.41,NNE,13,2.0,6.0,92,0.00,,,0.10,Wunderground v.1.15,2013-01-01 23:49:00,
2013-01-01 15:54:00,33.4,31.3,30.41,NNE,17,2.0,6.0,92,0.00,,,0.10,Wunderground v.1.15,2013-01-01 23:54:00,
2013-01-01 16:00:00,33.3,31.2,30.42,NE,51,2.0,6.0,92,0.00,,,0.10,Wunderground v.1.15,2013-01-02 00:00:00,
2013-01-01 16:05:00,33.3,31.2,30.42,NE,36,2.0,6.0,92,0.00,,,0.10,Wunderground v.1.15,2013-01-02 00:05:00,
2013-01-01 16:11:00,33.1,31.0,30.42,NNE,31,2.0,6.0,92,0.00,,,0.10,Wunderground v.1.15,2013-01-02 00:11:00,
2013-01-01 16:16:00,33.1,31.0,30.42,NNE,18,2.0,6.0,92,0.00,,,0.10,Wunderground v.1.15,2013-01-02 00:16:00,
2013-01-01 16:21:00,32.9,30.8,30.42,North,355,2.0,6.0,92,0.00,,,0.10,Wunderground v.1.15,2013-01-02 00:21:00,
2013-01-01 16:26:00,32.8,31.0,30.42,North,5,3.0,6.0,93,0.00,,,0.10,Wunderground v.1.15,2013-01-02 00:26:00,
2013-01-01 16:32:00,32.6,30.8,30.42,NE,41,3.0,6.0,93,0.00,,,0.10,Wunderground v.1.15,2013-01-02 00:32:00,
2013-01-01 16:37:00,32.5,30.7,30.42,NNE,14,3.0,6.0,93,0.00,,,0.10,Wunderground v.1.15,2013-01-02 00:37:00,
2013-01-01 16:43:00,32.4,30.6,30.42,NNE,23,3.0,6.0,93,0.00,,,0.10,Wunderground v.1.15,2013-01-02 00:43:00,
2013-01-01 16:48:00,32.3,30.5,30.42,NNE,21,3.0,6.0,93,0.00,,,0.10,Wunderground v.1.15,2013-01-02 00:48:00,
2013-01-01 16:53:00,32.2,30.4,30.42,ENE,72,3.0,6.0,93,0.00,,,0.10,Wunderground v.1.15,2013-01-02 00:53:00,
2013-01-01 16:59:00,32.1,30.3,30.42,NE,53,3.0,6.0,93,0.00,,,0.10,Wunderground v.1.15,2013-01-02 00:59:00,
2013-01-01 17:04:00,32.1,30.6,30.42,ENE,71,3.0,6.0,94,0.00,,,0.10,Wunderground v.1.15,2013-01-02 01:04:00,
2013-01-01 17:09:00,32.1,30.6,30.42,ENE,69,3.0,6.0,94,0.00,,,0.10,Wunderground v.1.15,2013-01-02 01:09:00,
2013-01-01 17:14:00,32.1,30.6,30.42,ENE,69,3.0,6.0,94,0.00,,,0.10,Wunderground v.1.15,2013-01-02 01:14:00,
2013-01-01 17:20:00,32.0,30.5,30.42,NE,49,3.0,6.0,94,0.00,,,0.10,Wunderground v.1.15,2013-01-02 01:20:00,
2013-01-01 17:25:00,32.0,32.0,30.42,NE,37,3.0,6.0,100,0.00,,,0.10,Wunderground v.1.15,2013-01-02 01:25:00,
2013-01-01 17:31:00,32.0,30.5,30.42,NE,38,3.0,6.0,94,0.00,,,0.10,Wunderground v.1.15,2013-01-02 01:31:00,
2013-01-01 17:36:00,32.0,30.5,30.41,NE,48,2.0,6.0,94,0.00,,,0.10,Wunderground v.1.15,2013-01-02 01:36:00,
2013-01-01 17:41:00,32.0,30.5,30.41,NE,47,1.0,6.0,94,0.00,,,0.10,Wunderground v.1.15,2013-01-02 01:41:00,
2013-01-01 17:47:00,32.1,30.6,30.41,NE,46,0.0,6.0,94,0.00,,,0.10,Wunderground v.1.15,2013-01-02 01:47:00,
2013-01-01 17:52:00,32.1,30.6,30.41,NE,46,1.0,6.0,94,0.00,,,0.10,Wunderground v.1.15,2013-01-02 01:52:00,
2013-01-01 17:57:00,32.1,30.6,30.41,NE,48,0.0,6.0,94,0.00,,,0.10,Wunderground v.1.15,2013-01-02 01:57:00,
2013-01-01 18:02:00,32.0,30.5,30.41,NE,48,0.0,6.0,94,0.00,,,0.10,Wunderground v.1.15,2013-01-02 02:02:00,
2013-01-01 18:08:00,32.0,30.5,30.41,NE,48,1.0,6.0,94,0.00,,,0.10,Wunderground v.1.15,2013-01-02 02:08:00,
2013-01-01 18:14:00,31.9,30.4,30.41,NE,52,2.0,3.0,94,0.00,,,0.10,Wunderground v.1.15,2013-01-02 02:14:00,
2013-01-01 18:19:00,31.9,30.4,30.41,NE,51,2.0,3.0,94,0.00,,,0.10,Wunderground v.1.15,2013-01-02 02:19:00,
2013-01-01 18:25:00,31.7,29.9,30.41,NNE,19,2.0,5.0,93,0.00,,,0.10,Wunderground v.1.15,2013-01-02 02:25:00,
2013-01-01 18:30:00,31.6,29.8,30.40,NE,34,3.0,3.0,93,0.00,,,0.10,Wunderground v.1.15,2013-01-02 02:30:00,
2013-01-01 18:35:00,31.5,30.0,30.41,NE,34,2.0,3.0,94,0.00,,,0.10,Wunderground v.1.15,2013-01-02 02:35:00,
2013-01-01 18:40:00,31.5,30.0,30.41,NE,46,1.0,1.0,94,0.00,,,0.10,Wunderground v.1.15,2013-01-02 02:40:00,
2013-01-01 18:46:00,31.5,30.0,30.40,NE,56,1.0,3.0,94,0.00,,,0.10,Wunderground v.1.15,2013-01-02 02:46:00,
2013-01-01 18:51:00,31.5,30.0,30.40,NE,55,2.0,3.0,94,0.00,,,0.10,Wunderground v.1.15,2013-01-02 02:51:00,
2013-01-01 18:57:00,31.4,29.9,30.40,NE,56,1.0,3.0,94,0.00,,,0.10,Wunderground v.1.15,2013-01-02 02:57:00,
2013-01-01 19:02:00,31.5,30.0,30.41,NE,56,1.0,5.0,94,0.00,,,0.10,Wunderground v.1.15,2013-01-02 03:02:00,
2013-01-01 19:07:00,31.4,29.9,30.40,ENE,63,1.0,5.0,94,0.00,,,0.10,Wunderground v.1.15,2013-01-02 03:07:00,
2013-01-01 19:12:00,31.4,29.9,30.40,ENE,63,2.0,5.0,94,0.00,,,0.10,Wunderground v.1.15,2013-01-02 03:12:00,
2013-01-01 19:18:00,31.4,29.9,30.40,ENE,71,2.0,5.0,94,0.00,,,0.10,Wunderground v.1.15,2013-01-02 03:18:00,
2013-01-01 19:23:00,31.3,29.8,30.40,ENE,71,2.0,5.0,94,0.00,,,0.10,Wunderground v.1.15,2013-01-02 03:23:00,
2013-01-01 19:29:00,31.3,29.8,30.40,ENE,68,1.0,5.0,94,0.00,,,0.10,Wunderground v.1.15,2013-01-02 03:29:00,
2013-01-01 19:34:00,31.2,29.7,30.39,ENE,69,1.0,5.0,94,0.00,,,0.10,Wunderground v.1.15,2013-01-02 03:34:00,
2013-01-01 19:39:00,31.2,29.7,30.39,ENE,69,1.0,5.0,94,0.00,,,0.10,Wunderground v.1.15,2013-01-02 03:39:00,
2013-01-01 19:45:00,31.2,29.7,30.40,ENE,69,0.0,5.0,94,0.00,,,0.10,Wunderground v.1.15,2013-01-02 03:45:00,
2013-01-01 19:50:00,31.3,29.8,30.40,ENE,69,1.0,1.0,94,0.00,,,0.10,Wunderground v.1.15,2013-01-02 03:50:00,
2013-01-01 19:55:00,31.3,29.8,30.40,ENE,69,1.0,5.0,94,0.00,,,0.10,Wunderground v.1.15,2013-01-02 03:55:00,
2013-01-01 20:01:00,31.3,29.8,30.40,ENE,69,0.0,5.0,94,0.00,,,0.10,Wunderground v.1.15,2013-01-02 04:01:00,
2013-01-01 20:06:00,31.3,29.8,30.39,ENE,69,0.0,5.0,94,0.00,,,0.10,Wunderground v.1.15,2013-01-02 04:06:00,
2013-01-01 20:11:00,31.4,29.9,30.39,ENE,69,0.0,5.0,94,0.00,,,0.10,Wunderground v.1.15,2013-01-02 04:11:00,
2013-01-01 20:17:00,31.4,29.9,30.39,ENE,69,0.0,5.0,94,0.00,,,0.10,Wunderground v.1.15,2013-01-02 04:17:00,
2013-01-01 20:22:00,31.4,29.9,30.39,ENE,69,0.0,5.0,94,0.00,,,0.10,Wunderground v.1.15,2013-01-02 04:22:00,
2013-01-01 20:27:00,31.3,29.8,30.38,ENE,69,0.0,5.0,94,0.00,,,0.10,Wunderground v.1.15,2013-01-02 04:27:00,
2013-01-01 20:33:00,31.3,29.8,30.39,ENE,69,0.0,5.0,94,0.00,,,0.10,Wunderground v.1.15,2013-01-02 04:33:00,
2013-01-01 20:38:00,31.2,29.7,30.38,ENE,69,0.0,5.0,94,0.00,,,0.10,Wunderground v.1.15,2013-01-02 04:38:00,
2013-01-01 20:44:00,31.3,29.8,30.38,ENE,69,0.0,5.0,94,0.00,,,0.10,Wunderground v.1.15,2013-01-02 04:44:00,
2013-01-01 20:49:00,31.3,29.8,30.38,ENE,69,0.0,5.0,94,0.00,,,0.10,Wunderground v.1.15,2013-01-02 04:49:00,
2013-01-01 20:54:00,31.4,29.9,30.38,ENE,69,0.0,5.0,94,0.00,,,0.10,Wunderground v.1.15,2013-01-02 04:54:00,
2013-01-01 21:00:00,31.4,29.9,30.38,ENE,69,0.0,5.0,94,0.00,,,0.10,Wunderground v.1.15,2013-01-02 05:00:00,
2013-01-01 21:01:00,31.4,29.9,30.38,ENE,69,0.0,5.0,94,0.00,,,0.10,Wunderground v.1.15,2013-01-02 05:01:00,
2013-01-01 21:02:00,31.4,29.9,30.38,ENE,69,0.0,5.0,94,0.00,,,0.10,Wunderground v.1.15,2013-01-02 05:02:00,
2013-01-01 21:04:00,31.5,30.0,30.38,ENE,69,0.0,5.0,94,0.00,,,0.10,Wunderground v.1.15,2013-01-02 05:04:00,
2013-01-01 21:09:00,31.5,30.0,30.38,ENE,69,0.0,5.0,94,0.00,,,0.10,Wunderground v.1.15,2013-01-02 05:09:00,
2013-01-01 21:14:00,31.5,30.0,30.38,ENE,69,0.0,5.0,94,0.00,,,0.10,Wunderground v.1.15,2013-01-02 05:14:00,
2013-01-01 21:20:00,31.6,30.1,30.38,ENE,69,0.0,5.0,94,0.00,,,0.10,Wunderground v.1.15,2013-01-02 05:20:00,
2013-01-01 21:25:00,31.6,30.1,30.38,ENE,69,0.0,5.0,94,0.00,,,0.10,Wunderground v.1.15,2013-01-02 05:25:00,
2013-01-01 21:30:00,31.7,30.2,30.38,ENE,69,0.0,5.0,94,0.00,,,0.10,Wunderground v.1.15,2013-01-02 05:30:00,
2013-01-01 21:35:00,31.7,30.2,30.38,ENE,69,0.0,5.0,94,0.00,,,0.10,Wunderground v.1.15,2013-01-02 05:35:00,
2013-01-01 21:41:00,31.8,30.3,30.38,ENE,69,0.0,5.0,94,0.00,,,0.10,Wunderground v.1.15,2013-01-02 05:41:00,
2013-01-01 21:46:00,31.8,30.3,30.38,ENE,69,0.0,5.0,94,0.00,,,0.10,Wunderground v.1.15,2013-01-02 05:46:00,
2013-01-01 21:52:00,31.8,30.3,30.38,ENE,69,0.0,5.0,94,0.00,,,0.10,Wunderground v.1.15,2013-01-02 05:52:00,
2013-01-01 21:57:00,31.8,30.3,30.38,ENE,69,0.0,5.0,94,0.00,,,0.10,Wunderground v.1.15,2013-01-02 05:57:00,
2013-01-01 22:02:00,31.8,30.3,30.38,ENE,69,0.0,5.0,94,0.00,,,0.10,Wunderground v.1.15,2013-01-02 06:02:00,
2013-01-01 22:07:00,31.8,30.3,30.37,ENE,69,0.0,5.0,94,0.00,,,0.10,Wunderground v.1.15,2013-01-02 06:07:00,
2013-01-01 22:13:00,31.7,30.2,30.37,ENE,69,0.0,5.0,94,0.00,,,0.10,Wunderground v.1.15,2013-01-02 06:13:00,
2013-01-01 22:19:00,31.6,30.1,30.37,ENE,69,0.0,5.0,94,0.00,,,0.10,Wunderground v.1.15,2013-01-02 06:19:00,
2013-01-01 22:24:00,31.5,30.0,30.37,ENE,69,0.0,5.0,94,0.00,,,0.10,Wunderground v.1.15,2013-01-02 06:24:00,
2013-01-01 22:29:00,31.5,30.0,30.37,ENE,69,0.0,5.0,94,0.00,,,0.10,Wunderground v.1.15,2013-01-02 06:29:00,
2013-01-01 22:35:00,31.5,30.0,30.37,ENE,69,0.0,5.0,94,0.00,,,0.10,Wunderground v.1.15,2013-01-02 06:35:00,
2013-01-01 22:40:00,31.4,29.9,30.37,ENE,69,0.0,5.0,94,0.00,,,0.10,Wunderground v.1.15,2013-01-02 06:40:00,
2013-01-01 22:45:00,31.4,29.9,30.37,ENE,69,0.0,5.0,94,0.00,,,0.10,Wunderground v.1.15,2013-01-02 06:45:00,
2013-01-01 22:50:00,31.3,29.8,30.37,ENE,69,0.0,5.0,94,0.00,,,0.10,Wunderground v.1.15,2013-01-02 06:50:00,
2013-01-01 22:56:00,31.2,29.7,30.36,ENE,69,0.0,5.0,94,0.00,,,0.10,Wunderground v.1.15,2013-01-02 06:56:00,
2013-01-01 23:01:00,31.2,29.7,30.37,ENE,69,0.0,5.0,94,0.00,,,0.10,Wunderground v.1.15,2013-01-02 07:01:00,
2013-01-01 23:07:00,31.3,29.8,30.37,NNE,30,1.0,5.0,94,0.00,,,0.10,Wunderground v.1.15,2013-01-02 07:07:00,
2013-01-01 23:12:00,31.4,29.9,30.37,NNE,30,1.0,5.0,94,0.00,,,0.10,Wunderground v.1.15,2013-01-02 07:12:00,
2013-01-01 23:18:00,31.2,29.7,30.36,NNE,30,0.0,5.0,94,0.00,,,0.10,Wunderground v.1.15,2013-01-02 07:18:00,
2013-01-01 23:23:00,31.1,29.3,30.37,NNE,30,0.0,5.0,93,0.00,,,0.10,Wunderground v.1.15,2013-01-02 07:23:00,
2013-01-01 23:29:00,30.9,29.1,30.37,NNE,30,0.0,5.0,93,0.00,,,0.10,Wunderground v.1.15,2013-01-02 07:29:00,
2013-01-01 23:34:00,30.7,28.9,30.36,NNE,30,0.0,5.0,93,0.00,,,0.10,Wunderground v.1.15,2013-01-02 07:34:00,
2013-01-01 23:39:00,30.3,28.5,30.37,NNE,30,0.0,5.0,93,0.00,,,0.10,Wunderground v.1.15,2013-01-02 07:39:00,
2013-01-01 23:45:00,30.0,28.2,30.37,NNE,30,0.0,5.0,93,0.00,,,0.10,Wunderground v.1.15,2013-01-02 07:45:00,
2013-01-01 23:50:00,29.8,28.0,30.37,NNE,30,0.0,5.0,93,0.00,,,0.10,Wunderground v.1.15,2013-01-02 07:50:00,
2013-01-01 23:55:00,29.7,27.9,30.37,NNE,30,0.0,5.0,93,0.00,,,0.10,Wunderground v.1.15,2013-01-02 07:55:00,